Time,TemperatureF,DewpointF,PressureIn,WindDirection,WindDirectionDegrees,WindSpeedMPH,WindSpeedGustMPH,Humidity,HourlyPrecipIn,Conditions,Clouds,dailyrainin,SoftwareType,DateUTC
2013-09-26 00:01:00,71.9,31.0,29.57,NNW,330,3.0,3.0,22,0.00,,,0.00,Wunderground v.1.15,2013-09-26 07:01:00,
2013-09-26 00:05:00,72.0,34.2,29.57,WNW,293,0.0,3.0,25,0.00,,,0.00,Wunderground v.1.15,2013-09-26 07:05:00,
2013-09-26 00:10:00,72.2,32.3,29.57,WNW,288,0.0,2.0,23,0.00,,,0.00,Wunderground v.1.15,2013-09-26 07:10:00,
2013-09-26 00:15:00,72.6,31.5,29.57,WSW,246,0.0,3.0,22,0.00,,,0.00,Wunderground v.1.15,2013-09-26 07:15:00,
2013-09-26 00:21:00,72.8,29.4,29.58,SSE,148,0.0,1.0,20,0.00,,,0.00,Wunderground v.1.15,2013-09-26 07:21:00,
2013-09-26 00:26:00,73.4,28.6,29.58,WSW,250,2.0,6.0,19,0.00,,,0.00,Wunderground v.1.15,2013-09-26 07:26:00,
2013-09-26 00:30:00,73.1,28.4,29.58,SW,226,6.0,6.0,19,0.00,,,0.00,Wunderground v.1.15,2013-09-26 07:30:00,
2013-09-26 00:35:00,72.8,28.1,29.58,ESE,120,0.0,7.0,19,0.00,,,0.00,Wunderground v.1.15,2013-09-26 07:35:00,
2013-09-26 00:40:00,72.5,29.1,29.58,WNW,300,1.0,1.0,20,0.00,,,0.00,Wunderground v.1.15,2013-09-26 07:40:00,
2013-09-26 00:45:00,72.0,31.0,29.58,WSW,249,0.0,1.0,22,0.00,,,0.00,Wunderground v.1.15,2013-09-26 07:45:00,
2013-09-26 00:50:00,71.6,28.4,29.58,SW,229,0.0,0.0,20,0.00,,,0.00,Wunderground v.1.15,2013-09-26 07:50:00,
2013-09-26 00:55:00,71.6,28.4,29.58,West,276,0.0,1.0,20,0.00,,,0.00,Wunderground v.1.15,2013-09-26 07:55:00,
2013-09-26 01:00:00,71.8,27.3,29.58,WNW,293,0.0,1.0,19,0.00,,,0.00,Wunderground v.1.15,2013-09-26 08:00:00,
2013-09-26 01:05:00,71.8,26.0,29.58,SE,133,1.0,4.0,18,0.00,,,0.00,Wunderground v.1.15,2013-09-26 08:05:00,
2013-09-26 01:10:00,72.1,26.2,29.58,South,179,3.0,3.0,18,0.00,,,0.00,Wunderground v.1.15,2013-09-26 08:10:00,
2013-09-26 01:15:00,71.9,27.4,29.58,West,281,1.0,3.0,19,0.00,,,0.00,Wunderground v.1.15,2013-09-26 08:15:00,
2013-09-26 01:20:00,71.6,27.1,29.58,NW,306,0.0,0.0,19,0.00,,,0.00,Wunderground v.1.15,2013-09-26 08:20:00,
2013-09-26 01:25:00,71.5,24.4,29.58,East,80,0.0,1.0,17,0.00,,,0.00,Wunderground v.1.15,2013-09-26 08:25:00,
2013-09-26 01:30:00,71.7,25.9,29.58,NNW,339,0.0,0.0,18,0.00,,,0.00,Wunderground v.1.15,2013-09-26 08:30:00,
2013-09-26 01:35:00,71.5,27.0,29.58,SE,135,0.0,2.0,19,0.00,,,0.00,Wunderground v.1.15,2013-09-26 08:35:00,
2013-09-26 01:40:00,71.4,22.8,29.58,East,93,1.0,1.0,16,0.00,,,0.00,Wunderground v.1.15,2013-09-26 08:40:00,
2013-09-26 01:45:00,71.6,19.8,29.58,ESE,119,1.0,1.0,14,0.00,,,0.00,Wunderground v.1.15,2013-09-26 08:45:00,
2013-09-26 01:50:00,72.2,20.3,29.58,East,101,0.0,1.0,14,0.00,,,0.00,Wunderground v.1.15,2013-09-26 08:50:00,
2013-09-26 01:55:00,72.3,22.0,29.58,North,359,0.0,1.0,15,0.00,,,0.00,Wunderground v.1.15,2013-09-26 08:55:00,
2013-09-26 02:00:00,71.9,27.4,29.58,WNW,291,0.0,4.0,19,0.00,,,0.00,Wunderground v.1.15,2013-09-26 09:00:00,
2013-09-26 02:05:00,70.3,30.7,29.58,NW,316,0.0,4.0,23,0.00,,,0.00,Wunderground v.1.15,2013-09-26 09:05:00,
2013-09-26 02:10:00,69.0,29.6,29.58,NNW,328,0.0,1.0,23,0.00,,,0.00,Wunderground v.1.15,2013-09-26 09:10:00,
2013-09-26 02:15:00,68.3,30.1,29.58,North,6,0.0,2.0,24,0.00,,,0.00,Wunderground v.1.15,2013-09-26 09:15:00,
2013-09-26 02:20:00,67.9,30.8,29.58,ESE,105,1.0,1.0,25,0.00,,,0.00,Wunderground v.1.15,2013-09-26 09:20:00,
2013-09-26 02:25:00,68.1,27.8,29.58,East,90,1.0,3.0,22,0.00,,,0.00,Wunderground v.1.15,2013-09-26 09:25:00,
2013-09-26 02:30:00,68.9,24.9,29.58,ESE,110,1.0,1.0,19,0.00,,,0.00,Wunderground v.1.15,2013-09-26 09:30:00,
2013-09-26 02:35:00,69.8,23.0,29.58,ESE,107,2.0,3.0,17,0.00,,,0.00,Wunderground v.1.15,2013-09-26 09:35:00,
2013-09-26 02:40:00,70.4,20.5,29.58,ESE,107,0.0,1.0,15,0.00,,,0.00,Wunderground v.1.15,2013-09-26 09:40:00,
2013-09-26 02:45:00,70.3,20.4,29.58,ESE,104,0.0,2.0,15,0.00,,,0.00,Wunderground v.1.15,2013-09-26 09:45:00,
2013-09-26 02:50:00,69.7,24.3,29.57,ESE,104,0.0,0.0,18,0.00,,,0.00,Wunderground v.1.15,2013-09-26 09:50:00,
2013-09-26 02:55:00,68.8,24.8,29.57,NNW,327,0.0,1.0,19,0.00,,,0.00,Wunderground v.1.15,2013-09-26 09:55:00,
2013-09-26 03:00:00,68.6,24.7,29.57,NNW,342,0.0,1.0,19,0.00,,,0.00,Wunderground v.1.15,2013-09-26 10:00:00,
2013-09-26 03:05:00,68.8,23.5,29.57,SSE,165,0.0,1.0,18,0.00,,,0.00,Wunderground v.1.15,2013-09-26 10:05:00,
2013-09-26 03:10:00,69.2,25.1,29.57,NE,47,0.0,0.0,19,0.00,,,0.00,Wunderground v.1.15,2013-09-26 10:10:00,
2013-09-26 03:15:00,69.6,21.4,29.57,East,100,0.0,1.0,16,0.00,,,0.00,Wunderground v.1.15,2013-09-26 10:15:00,
2013-09-26 03:20:00,69.6,24.2,29.57,WNW,288,0.0,1.0,18,0.00,,,0.00,Wunderground v.1.15,2013-09-26 10:20:00,
2013-09-26 03:25:00,69.7,22.9,29.57,North,4,3.0,3.0,17,0.00,,,0.00,Wunderground v.1.15,2013-09-26 10:25:00,
2013-09-26 03:30:00,67.1,32.0,29.57,NNW,346,4.0,4.0,27,0.00,,,0.00,Wunderground v.1.15,2013-09-26 10:30:00,
2013-09-26 03:35:00,64.8,32.6,29.58,WNW,298,4.0,4.0,30,0.00,,,0.00,Wunderground v.1.15,2013-09-26 10:35:00,
2013-09-26 03:40:00,64.4,34.6,29.58,WNW,288,3.0,6.0,33,0.00,,,0.00,Wunderground v.1.15,2013-09-26 10:40:00,
2013-09-26 03:45:00,64.1,34.4,29.58,WNW,301,3.0,6.0,33,0.00,,,0.00,Wunderground v.1.15,2013-09-26 10:45:00,
2013-09-26 03:50:00,65.2,32.1,29.58,WSW,242,1.0,3.0,29,0.00,,,0.00,Wunderground v.1.15,2013-09-26 10:50:00,
2013-09-26 03:55:00,65.8,32.6,29.58,SW,222,0.0,4.0,29,0.00,,,0.00,Wunderground v.1.15,2013-09-26 10:55:00,
2013-09-26 04:00:00,65.2,34.6,29.59,West,260,4.0,4.0,32,0.00,,,0.00,Wunderground v.1.15,2013-09-26 11:00:00,
2013-09-26 04:05:00,65.8,32.6,29.59,West,259,4.0,6.0,29,0.00,,,0.00,Wunderground v.1.15,2013-09-26 11:05:00,
2013-09-26 04:10:00,66.6,31.5,29.58,SE,131,0.0,2.0,27,0.00,,,0.00,Wunderground v.1.15,2013-09-26 11:10:00,
2013-09-26 04:15:00,66.7,30.7,29.59,ESE,117,0.0,2.0,26,0.00,,,0.00,Wunderground v.1.15,2013-09-26 11:15:00,
2013-09-26 04:20:00,66.6,30.6,29.59,ESE,115,0.0,0.0,26,0.00,,,0.00,Wunderground v.1.15,2013-09-26 11:20:00,
2013-09-26 04:25:00,66.2,30.3,29.59,ESE,116,0.0,0.0,26,0.00,,,0.00,Wunderground v.1.15,2013-09-26 11:25:00,
2013-09-26 04:30:00,65.9,30.9,29.59,ESE,116,0.0,0.0,27,0.00,,,0.00,Wunderground v.1.15,2013-09-26 11:30:00,
2013-09-26 04:35:00,65.5,29.7,29.59,ESE,107,0.0,1.0,26,0.00,,,0.00,Wunderground v.1.15,2013-09-26 11:35:00,
2013-09-26 04:40:00,65.2,30.3,29.59,ESE,108,0.0,0.0,27,0.00,,,0.00,Wunderground v.1.15,2013-09-26 11:40:00,
2013-09-26 04:45:00,65.1,30.3,29.59,ESE,105,0.0,1.0,27,0.00,,,0.00,Wunderground v.1.15,2013-09-26 11:45:00,
2013-09-26 04:50:00,65.6,29.8,29.59,ESE,115,0.0,0.0,26,0.00,,,0.00,Wunderground v.1.15,2013-09-26 11:50:00,
2013-09-26 04:55:00,66.2,30.3,29.59,North,11,0.0,1.0,26,0.00,,,0.00,Wunderground v.1.15,2013-09-26 11:55:00,
2013-09-26 05:00:00,66.6,29.6,29.59,NW,307,0.0,0.0,25,0.00,,,0.00,Wunderground v.1.15,2013-09-26 12:00:00,
2013-09-26 05:05:00,66.8,28.8,29.59,East,98,0.0,1.0,24,0.00,,,0.00,Wunderground v.1.15,2013-09-26 12:05:00,
2013-09-26 05:10:00,66.3,36.3,29.60,WNW,283,1.0,2.0,33,0.00,,,0.00,Wunderground v.1.15,2013-09-26 12:10:00,
2013-09-26 05:15:00,62.9,36.9,29.60,West,276,5.0,5.0,38,0.00,,,0.00,Wunderground v.1.15,2013-09-26 12:15:00,
2013-09-26 05:20:00,62.3,37.7,29.60,South,181,0.0,2.0,40,0.00,,,0.00,Wunderground v.1.15,2013-09-26 12:20:00,
2013-09-26 05:25:00,62.1,36.2,29.60,SSW,203,0.0,2.0,38,0.00,,,0.00,Wunderground v.1.15,2013-09-26 12:25:00,
2013-09-26 05:30:00,61.8,37.8,29.60,SSW,205,0.0,0.0,41,0.00,,,0.00,Wunderground v.1.15,2013-09-26 12:30:00,
2013-09-26 05:35:00,61.0,36.5,29.60,SSW,205,0.0,0.0,40,0.00,,,0.00,Wunderground v.1.15,2013-09-26 12:35:00,
2013-09-26 05:40:00,60.7,35.6,29.61,SSW,205,0.0,0.0,39,0.00,,,0.00,Wunderground v.1.15,2013-09-26 12:40:00,
2013-09-26 05:45:00,61.1,35.9,29.61,SSW,204,0.0,0.0,39,0.00,,,0.00,Wunderground v.1.15,2013-09-26 12:45:00,
2013-09-26 05:50:00,61.2,36.0,29.61,SSW,204,0.0,0.0,39,0.00,,,0.00,Wunderground v.1.15,2013-09-26 12:50:00,
2013-09-26 05:55:00,61.3,36.1,29.61,SSW,204,0.0,0.0,39,0.00,,,0.00,Wunderground v.1.15,2013-09-26 12:55:00,
2013-09-26 06:00:00,61.1,36.6,29.61,SSW,203,0.0,0.0,40,0.00,,,0.00,Wunderground v.1.15,2013-09-26 13:00:00,
2013-09-26 06:05:00,60.7,36.8,29.61,SE,139,0.0,1.0,41,0.00,,,0.00,Wunderground v.1.15,2013-09-26 13:05:00,
2013-09-26 06:10:00,60.7,37.5,29.62,SE,139,0.0,0.0,42,0.00,,,0.00,Wunderground v.1.15,2013-09-26 13:10:00,
2013-09-26 06:15:00,60.5,37.9,29.61,ESE,121,0.0,0.0,43,0.00,,,0.00,Wunderground v.1.15,2013-09-26 13:15:00,
2013-09-26 06:20:00,60.6,36.8,29.61,ESE,105,0.0,0.0,41,0.00,,,0.00,Wunderground v.1.15,2013-09-26 13:20:00,
2013-09-26 06:25:00,60.6,36.8,29.61,ESE,105,0.0,1.0,41,0.00,,,0.00,Wunderground v.1.15,2013-09-26 13:25:00,
2013-09-26 06:30:00,60.8,36.3,29.62,ESE,112,0.0,0.0,40,0.00,,,0.00,Wunderground v.1.15,2013-09-26 13:30:00,
2013-09-26 06:35:00,61.1,35.3,29.62,East,86,0.0,1.0,38,0.00,,,0.00,Wunderground v.1.15,2013-09-26 13:35:00,
2013-09-26 06:40:00,61.3,35.5,29.62,ESE,105,0.0,0.0,38,0.00,,,0.00,Wunderground v.1.15,2013-09-26 13:40:00,
2013-09-26 06:45:00,61.6,37.0,29.62,WSW,250,0.0,1.0,40,0.00,,,0.00,Wunderground v.1.15,2013-09-26 13:45:00,
2013-09-26 06:50:00,62.1,37.5,29.63,NNW,340,0.0,0.0,40,0.00,,,0.00,Wunderground v.1.15,2013-09-26 13:50:00,
2013-09-26 06:55:00,62.5,37.8,29.63,NNW,328,0.0,1.0,40,0.00,,,0.00,Wunderground v.1.15,2013-09-26 13:55:00,
2013-09-26 07:00:00,63.0,38.3,29.63,NNW,330,0.0,0.0,40,0.00,,,0.00,Wunderground v.1.15,2013-09-26 14:00:00,
2013-09-26 07:05:00,63.3,42.2,29.63,WNW,302,2.0,4.0,46,0.00,,,0.00,Wunderground v.1.15,2013-09-26 14:05:00,
2013-09-26 07:10:00,61.3,39.2,29.64,NNE,18,7.0,7.0,44,0.00,,,0.00,Wunderground v.1.15,2013-09-26 14:10:00,
2013-09-26 07:15:00,61.8,37.8,29.64,North,355,0.0,7.0,41,0.00,,,0.00,Wunderground v.1.15,2013-09-26 14:15:00,
2013-09-26 07:20:00,61.9,42.0,29.64,WNW,295,0.0,3.0,48,0.00,,,0.00,Wunderground v.1.15,2013-09-26 14:20:00,
2013-09-26 07:25:00,61.8,40.2,29.64,North,352,1.0,3.0,45,0.00,,,0.00,Wunderground v.1.15,2013-09-26 14:25:00,
2013-09-26 07:30:00,62.1,38.7,29.64,North,357,0.0,1.0,42,0.00,,,0.00,Wunderground v.1.15,2013-09-26 14:30:00,
2013-09-26 07:35:00,62.0,41.5,29.64,NNW,339,0.0,2.0,47,0.00,,,0.00,Wunderground v.1.15,2013-09-26 14:35:00,
2013-09-26 07:40:00,62.6,40.4,29.64,ENE,73,0.0,0.0,44,0.00,,,0.00,Wunderground v.1.15,2013-09-26 14:40:00,
2013-09-26 07:45:00,63.8,40.9,29.64,ENE,63,1.0,1.0,43,0.00,,,0.00,Wunderground v.1.15,2013-09-26 14:45:00,
2013-09-26 07:50:00,65.3,39.0,29.65,NW,325,0.0,1.0,38,0.00,,,0.00,Wunderground v.1.15,2013-09-26 14:50:00,
2013-09-26 07:55:00,65.5,43.0,29.65,NW,321,0.0,0.0,44,0.00,,,0.00,Wunderground v.1.15,2013-09-26 14:55:00,
2013-09-26 08:00:00,65.8,43.9,29.65,NW,322,1.0,1.0,45,0.00,,,0.00,Wunderground v.1.15,2013-09-26 15:00:00,
2013-09-26 08:05:00,66.3,44.9,29.65,NNW,344,2.0,2.0,46,0.00,,,0.00,Wunderground v.1.15,2013-09-26 15:05:00,
2013-09-26 08:10:00,66.9,42.4,29.65,North,3,0.0,3.0,41,0.00,,,0.00,Wunderground v.1.15,2013-09-26 15:10:00,
2013-09-26 08:15:00,67.9,42.7,29.65,North,6,2.0,3.0,40,0.00,,,0.00,Wunderground v.1.15,2013-09-26 15:15:00,
2013-09-26 08:20:00,68.7,40.7,29.65,NNW,330,0.0,3.0,36,0.00,,,0.00,Wunderground v.1.15,2013-09-26 15:20:00,
2013-09-26 08:25:00,69.8,38.6,29.65,East,82,0.0,2.0,32,0.00,,,0.00,Wunderground v.1.15,2013-09-26 15:25:00,
2013-09-26 08:30:00,71.2,37.3,29.65,East,86,0.0,0.0,29,0.00,,,0.00,Wunderground v.1.15,2013-09-26 15:30:00,
2013-09-26 08:35:00,72.9,37.9,29.66,NW,321,1.0,1.0,28,0.00,,,0.00,Wunderground v.1.15,2013-09-26 15:35:00,
2013-09-26 08:40:00,73.7,38.6,29.66,NW,314,0.0,0.0,28,0.00,,,0.00,Wunderground v.1.15,2013-09-26 15:40:00,
2013-09-26 08:45:00,74.6,38.4,29.66,NW,314,0.0,0.0,27,0.00,,,0.00,Wunderground v.1.15,2013-09-26 15:45:00,
2013-09-26 08:50:00,74.6,38.4,29.66,WSW,252,0.0,0.0,27,0.00,,,0.00,Wunderground v.1.15,2013-09-26 15:50:00,
2013-09-26 08:55:00,74.9,37.7,29.66,NE,51,0.0,1.0,26,0.00,,,0.00,Wunderground v.1.15,2013-09-26 15:55:00,
2013-09-26 09:00:00,74.6,37.4,29.67,ESE,108,1.0,1.0,26,0.00,,,0.00,Wunderground v.1.15,2013-09-26 16:00:00,
2013-09-26 09:05:00,73.9,39.6,29.67,NNW,339,1.0,4.0,29,0.00,,,0.00,Wunderground v.1.15,2013-09-26 16:05:00,
2013-09-26 09:10:00,73.1,40.7,29.67,West,259,1.0,1.0,31,0.00,,,0.00,Wunderground v.1.15,2013-09-26 16:10:00,
2013-09-26 09:15:00,73.3,40.0,29.67,WSW,240,0.0,2.0,30,0.00,,,0.00,Wunderground v.1.15,2013-09-26 16:15:00,
2013-09-26 09:20:00,73.2,38.1,29.67,SE,129,0.0,0.0,28,0.00,,,0.00,Wunderground v.1.15,2013-09-26 16:20:00,
2013-09-26 09:25:00,73.3,39.1,29.67,ESE,118,0.0,2.0,29,0.00,,,0.00,Wunderground v.1.15,2013-09-26 16:25:00,
2013-09-26 09:30:00,73.0,38.9,29.67,WSW,248,4.0,4.0,29,0.00,,,0.00,Wunderground v.1.15,2013-09-26 16:30:00,
2013-09-26 09:35:00,72.4,40.0,29.67,ESE,122,1.0,4.0,31,0.00,,,0.00,Wunderground v.1.15,2013-09-26 16:35:00,
2013-09-26 09:40:00,73.5,40.2,29.67,West,260,0.0,1.0,30,0.00,,,0.00,Wunderground v.1.15,2013-09-26 16:40:00,
2013-09-26 09:45:00,74.1,40.7,29.67,ESE,123,0.0,4.0,30,0.00,,,0.00,Wunderground v.1.15,2013-09-26 16:45:00,
2013-09-26 09:50:00,74.5,39.2,29.67,ESE,117,0.0,1.0,28,0.00,,,0.00,Wunderground v.1.15,2013-09-26 16:50:00,
2013-09-26 09:55:00,75.1,40.7,29.67,ESE,117,0.0,2.0,29,0.00,,,0.00,Wunderground v.1.15,2013-09-26 16:55:00,
2013-09-26 10:00:00,75.9,39.5,29.67,WSW,240,1.0,1.0,27,0.00,,,0.00,Wunderground v.1.15,2013-09-26 17:00:00,
2013-09-26 10:05:00,76.5,40.0,29.67,West,263,0.0,2.0,27,0.00,,,0.00,Wunderground v.1.15,2013-09-26 17:05:00,
2013-09-26 10:10:00,76.5,40.0,29.67,WSW,253,1.0,1.0,27,0.00,,,0.00,Wunderground v.1.15,2013-09-26 17:10:00,
2013-09-26 10:15:00,76.3,39.8,29.67,SW,230,1.0,4.0,27,0.00,,,0.00,Wunderground v.1.15,2013-09-26 17:15:00,
2013-09-26 10:20:00,77.0,39.5,29.67,ENE,64,1.0,1.0,26,0.00,,,0.00,Wunderground v.1.15,2013-09-26 17:20:00,
2013-09-26 10:25:00,77.5,38.9,29.67,West,259,2.0,6.0,25,0.00,,,0.00,Wunderground v.1.15,2013-09-26 17:25:00,
2013-09-26 10:30:00,76.3,39.8,29.67,SW,224,2.0,2.0,27,0.00,,,0.00,Wunderground v.1.15,2013-09-26 17:30:00,
2013-09-26 10:35:00,76.6,39.1,29.67,WNW,293,0.0,5.0,26,0.00,,,0.00,Wunderground v.1.15,2013-09-26 17:35:00,
2013-09-26 10:40:00,77.5,37.8,29.67,SW,236,0.0,1.0,24,0.00,,,0.00,Wunderground v.1.15,2013-09-26 17:40:00,
2013-09-26 10:45:00,77.5,36.8,29.67,South,187,0.0,6.0,23,0.00,,,0.00,Wunderground v.1.15,2013-09-26 17:45:00,
2013-09-26 10:50:00,78.3,38.5,29.67,WNW,291,1.0,2.0,24,0.00,,,0.00,Wunderground v.1.15,2013-09-26 17:50:00,
2013-09-26 10:55:00,78.9,39.0,29.67,West,273,5.0,5.0,24,0.00,,,0.00,Wunderground v.1.15,2013-09-26 17:55:00,
2013-09-26 11:00:00,78.6,38.8,29.67,SE,124,0.0,2.0,24,0.00,,,0.00,Wunderground v.1.15,2013-09-26 18:00:00,
2013-09-26 11:05:00,79.6,38.5,29.67,WNW,298,0.0,5.0,23,0.00,,,0.00,Wunderground v.1.15,2013-09-26 18:05:00,
2013-09-26 11:10:00,79.8,36.4,29.67,SW,226,3.0,5.0,21,0.00,,,0.00,Wunderground v.1.15,2013-09-26 18:10:00,
2013-09-26 11:15:00,79.0,38.0,29.67,West,262,2.0,6.0,23,0.00,,,0.00,Wunderground v.1.15,2013-09-26 18:15:00,
2013-09-26 11:20:00,79.4,38.4,29.67,SSE,152,1.0,3.0,23,0.00,,,0.00,Wunderground v.1.15,2013-09-26 18:20:00,
2013-09-26 11:25:00,79.3,37.1,29.67,SSW,205,2.0,9.0,22,0.00,,,0.00,Wunderground v.1.15,2013-09-26 18:25:00,
2013-09-26 11:30:00,79.5,38.4,29.67,WSW,256,6.0,6.0,23,0.00,,,0.00,Wunderground v.1.15,2013-09-26 18:30:00,
2013-09-26 11:35:00,79.0,38.0,29.67,SW,232,1.0,8.0,23,0.00,,,0.00,Wunderground v.1.15,2013-09-26 18:35:00,
2013-09-26 11:40:00,78.8,37.9,29.67,West,260,5.0,9.0,23,0.00,,,0.00,Wunderground v.1.15,2013-09-26 18:40:00,
2013-09-26 11:45:00,78.9,36.8,29.67,SSW,207,2.0,9.0,22,0.00,,,0.00,Wunderground v.1.15,2013-09-26 18:45:00,
2013-09-26 11:50:00,78.7,36.6,29.67,West,260,5.0,8.0,22,0.00,,,0.00,Wunderground v.1.15,2013-09-26 18:50:00,
2013-09-26 11:55:00,78.6,37.7,29.67,West,276,2.0,10.0,23,0.00,,,0.00,Wunderground v.1.15,2013-09-26 18:55:00,
2013-09-26 12:00:00,78.8,38.9,29.66,WSW,256,5.0,6.0,24,0.00,,,0.00,Wunderground v.1.15,2013-09-26 19:00:00,
2013-09-26 12:05:00,78.7,37.8,29.66,WSW,238,4.0,11.0,23,0.00,,,0.00,Wunderground v.1.15,2013-09-26 19:05:00,
2013-09-26 12:10:00,79.6,39.6,29.66,SE,130,1.0,4.0,24,0.00,,,0.00,Wunderground v.1.15,2013-09-26 19:10:00,
2013-09-26 12:15:00,80.5,39.3,29.66,West,266,3.0,9.0,23,0.00,,,0.00,Wunderground v.1.15,2013-09-26 19:15:00,
2013-09-26 12:20:00,81.3,39.9,29.66,SSE,151,0.0,2.0,23,0.00,,,0.00,Wunderground v.1.15,2013-09-26 19:20:00,
2013-09-26 12:25:00,81.9,39.3,29.66,West,276,6.0,8.0,22,0.00,,,0.00,Wunderground v.1.15,2013-09-26 19:25:00,
2013-09-26 12:30:00,80.3,38.0,29.66,WNW,283,3.0,3.0,22,0.00,,,0.00,Wunderground v.1.15,2013-09-26 19:30:00,
2013-09-26 12:35:00,80.4,38.1,29.66,NW,315,0.0,5.0,22,0.00,,,0.00,Wunderground v.1.15,2013-09-26 19:35:00,
2013-09-26 12:40:00,81.8,38.0,29.66,WSW,245,8.0,8.0,21,0.00,,,0.00,Wunderground v.1.15,2013-09-26 19:40:00,
2013-09-26 12:45:00,81.4,38.9,29.66,South,186,1.0,12.0,22,0.00,,,0.00,Wunderground v.1.15,2013-09-26 19:45:00,
2013-09-26 12:50:00,81.8,36.8,29.66,WSW,240,9.0,9.0,20,0.00,,,0.00,Wunderground v.1.15,2013-09-26 19:50:00,
2013-09-26 12:55:00,81.5,39.0,29.65,NW,315,1.0,11.0,22,0.00,,,0.00,Wunderground v.1.15,2013-09-26 19:55:00,
2013-09-26 13:00:00,83.0,40.2,29.65,NE,41,1.0,2.0,22,0.00,,,0.00,Wunderground v.1.15,2013-09-26 20:00:00,
2013-09-26 13:05:00,84.1,38.7,29.65,East,96,0.0,2.0,20,0.00,,,0.00,Wunderground v.1.15,2013-09-26 20:05:00,
2013-09-26 13:10:00,83.7,37.0,29.65,ESE,108,2.0,4.0,19,0.00,,,0.00,Wunderground v.1.15,2013-09-26 20:10:00,
2013-09-26 13:15:00,83.6,39.5,29.65,ESE,117,0.0,4.0,21,0.00,,,0.00,Wunderground v.1.15,2013-09-26 20:15:00,
2013-09-26 13:20:00,84.1,38.7,29.65,SW,229,1.0,4.0,20,0.00,,,0.00,Wunderground v.1.15,2013-09-26 20:20:00,
2013-09-26 13:25:00,84.5,39.0,29.65,ESE,120,2.0,5.0,20,0.00,,,0.00,Wunderground v.1.15,2013-09-26 20:25:00,
2013-09-26 13:30:00,84.4,37.6,29.65,NW,315,3.0,4.0,19,0.00,,,0.00,Wunderground v.1.15,2013-09-26 20:30:00,
2013-09-26 13:35:00,83.3,38.0,29.65,SE,131,0.0,6.0,20,0.00,,,0.00,Wunderground v.1.15,2013-09-26 20:35:00,
2013-09-26 13:40:00,83.0,36.5,29.65,East,98,0.0,3.0,19,0.00,,,0.00,Wunderground v.1.15,2013-09-26 20:40:00,
2013-09-26 13:45:00,83.6,39.5,29.65,NW,316,1.0,6.0,21,0.00,,,0.00,Wunderground v.1.15,2013-09-26 20:45:00,
2013-09-26 13:50:00,83.4,41.7,29.64,NW,326,8.0,11.0,23,0.00,,,0.00,Wunderground v.1.15,2013-09-26 20:50:00,
2013-09-26 13:55:00,82.4,37.3,29.65,West,277,4.0,11.0,20,0.00,,,0.00,Wunderground v.1.15,2013-09-26 20:55:00,
2013-09-26 14:00:00,82.3,39.6,29.64,NNW,332,1.0,4.0,22,0.00,,,0.00,Wunderground v.1.15,2013-09-26 21:00:00,
2013-09-26 14:05:00,82.8,38.9,29.64,WSW,243,1.0,5.0,21,0.00,,,0.00,Wunderground v.1.15,2013-09-26 21:05:00,
2013-09-26 14:10:00,82.3,41.9,29.64,West,277,4.0,9.0,24,0.00,,,0.00,Wunderground v.1.15,2013-09-26 21:10:00,
2013-09-26 14:15:00,82.0,43.7,29.64,NW,314,7.0,9.0,26,0.00,,,0.00,Wunderground v.1.15,2013-09-26 21:15:00,
2013-09-26 14:20:00,81.9,38.1,29.64,West,259,5.0,6.0,21,0.00,,,0.00,Wunderground v.1.15,2013-09-26 21:20:00,
2013-09-26 14:25:00,82.0,38.2,29.64,West,279,2.0,6.0,21,0.00,,,0.00,Wunderground v.1.15,2013-09-26 21:25:00,
2013-09-26 14:30:00,82.3,38.4,29.64,NW,324,2.0,4.0,21,0.00,,,0.00,Wunderground v.1.15,2013-09-26 21:30:00,
2013-09-26 14:35:00,82.4,43.0,29.64,NNE,16,7.0,7.0,25,0.00,,,0.00,Wunderground v.1.15,2013-09-26 21:35:00,
2013-09-26 14:40:00,82.3,40.8,29.64,NNW,340,3.0,3.0,23,0.00,,,0.00,Wunderground v.1.15,2013-09-26 21:40:00,
2013-09-26 14:45:00,82.4,42.0,29.64,West,274,2.0,6.0,24,0.00,,,0.00,Wunderground v.1.15,2013-09-26 21:45:00,
2013-09-26 14:50:00,82.5,38.6,29.63,NW,304,6.0,8.0,21,0.00,,,0.00,Wunderground v.1.15,2013-09-26 21:50:00,
2013-09-26 14:55:00,82.5,42.1,29.63,WSW,256,6.0,11.0,24,0.00,,,0.00,Wunderground v.1.15,2013-09-26 21:55:00,
2013-09-26 15:00:00,82.3,40.8,29.64,WNW,284,7.0,8.0,23,0.00,,,0.00,Wunderground v.1.15,2013-09-26 22:00:00,
2013-09-26 15:05:00,82.3,35.9,29.63,WSW,257,5.0,9.0,19,0.00,,,0.00,Wunderground v.1.15,2013-09-26 22:05:00,
2013-09-26 15:10:00,82.3,35.9,29.63,West,270,6.0,7.0,19,0.00,,,0.00,Wunderground v.1.15,2013-09-26 22:10:00,
2013-09-26 15:15:00,82.4,42.0,29.64,West,278,5.0,8.0,24,0.00,,,0.00,Wunderground v.1.15,2013-09-26 22:15:00,
2013-09-26 15:20:00,82.6,38.7,29.64,WNW,283,7.0,8.0,21,0.00,,,0.00,Wunderground v.1.15,2013-09-26 22:20:00,
2013-09-26 15:25:00,82.9,35.0,29.64,SW,229,6.0,9.0,18,0.00,,,0.00,Wunderground v.1.15,2013-09-26 22:25:00,
2013-09-26 15:30:00,83.2,37.9,29.64,SW,230,4.0,6.0,20,0.00,,,0.00,Wunderground v.1.15,2013-09-26 22:30:00,
2013-09-26 15:35:00,83.5,38.2,29.63,WNW,294,8.0,9.0,20,0.00,,,0.00,Wunderground v.1.15,2013-09-26 22:35:00,
2013-09-26 15:40:00,83.2,37.9,29.63,West,262,5.0,7.0,20,0.00,,,0.00,Wunderground v.1.15,2013-09-26 22:40:00,
2013-09-26 15:45:00,83.0,35.1,29.64,WSW,258,5.0,18.0,18,0.00,,,0.00,Wunderground v.1.15,2013-09-26 22:45:00,
2013-09-26 15:50:00,82.8,36.3,29.64,West,269,8.0,11.0,19,0.00,,,0.00,Wunderground v.1.15,2013-09-26 22:50:00,
2013-09-26 15:55:00,82.8,32.0,29.64,WSW,238,6.0,11.0,16,0.00,,,0.00,Wunderground v.1.15,2013-09-26 22:55:00,
2013-09-26 16:00:00,83.2,36.6,29.63,West,264,4.0,7.0,19,0.00,,,0.00,Wunderground v.1.15,2013-09-26 23:00:00,
2013-09-26 16:05:00,83.7,31.1,29.64,WNW,283,3.0,7.0,15,0.00,,,0.00,Wunderground v.1.15,2013-09-26 23:05:00,
2013-09-26 16:10:00,83.8,31.2,29.64,WSW,239,8.0,9.0,15,0.00,,,0.00,Wunderground v.1.15,2013-09-26 23:10:00,
2013-09-26 16:15:00,83.7,34.2,29.64,West,266,3.0,9.0,17,0.00,,,0.00,Wunderground v.1.15,2013-09-26 23:15:00,
2013-09-26 16:20:00,83.7,32.7,29.64,West,266,3.0,5.0,16,0.00,,,0.00,Wunderground v.1.15,2013-09-26 23:20:00,
2013-09-26 16:25:00,83.6,34.2,29.64,WNW,288,6.0,10.0,17,0.00,,,0.00,Wunderground v.1.15,2013-09-26 23:25:00,
2013-09-26 16:30:00,82.8,37.6,29.64,West,273,9.0,11.0,20,0.00,,,0.00,Wunderground v.1.15,2013-09-26 23:30:00,
2013-09-26 16:35:00,82.3,37.2,29.64,West,271,13.0,15.0,20,0.00,,,0.00,Wunderground v.1.15,2013-09-26 23:35:00,
2013-09-26 16:40:00,82.1,34.4,29.64,WNW,285,10.0,12.0,18,0.00,,,0.00,Wunderground v.1.15,2013-09-26 23:40:00,
2013-09-26 16:45:00,82.2,35.8,29.64,WNW,283,9.0,15.0,19,0.00,,,0.00,Wunderground v.1.15,2013-09-26 23:45:00,
2013-09-26 16:50:00,82.4,33.2,29.65,NW,307,11.0,11.0,17,0.00,,,0.00,Wunderground v.1.15,2013-09-26 23:50:00,
2013-09-26 16:55:00,82.5,36.1,29.65,WNW,284,10.0,11.0,19,0.00,,,0.00,Wunderground v.1.15,2013-09-26 23:55:00,
2013-09-26 17:00:00,82.6,33.4,29.65,WSW,252,7.0,10.0,17,0.00,,,0.00,Wunderground v.1.15,2013-09-27 00:00:00,
2013-09-26 17:05:00,82.5,34.7,29.65,West,260,7.0,10.0,18,0.00,,,0.00,Wunderground v.1.15,2013-09-27 00:05:00,
2013-09-26 17:10:00,82.3,35.9,29.65,WNW,301,5.0,7.0,19,0.00,,,0.00,Wunderground v.1.15,2013-09-27 00:10:00,
2013-09-26 17:15:00,82.2,35.8,29.65,WSW,257,10.0,12.0,19,0.00,,,0.00,Wunderground v.1.15,2013-09-27 00:15:00,
2013-09-26 17:20:00,82.1,32.9,29.65,West,273,4.0,7.0,17,0.00,,,0.00,Wunderground v.1.15,2013-09-27 00:20:00,
2013-09-26 17:25:00,82.0,37.0,29.65,WNW,284,4.0,7.0,20,0.00,,,0.00,Wunderground v.1.15,2013-09-27 00:25:00,
2013-09-26 17:30:00,82.1,37.0,29.65,West,259,2.0,4.0,20,0.00,,,0.00,Wunderground v.1.15,2013-09-27 00:30:00,
2013-09-26 17:35:00,81.4,40.0,29.65,WSW,250,6.0,12.0,23,0.00,,,0.00,Wunderground v.1.15,2013-09-27 00:35:00,
2013-09-26 17:40:00,79.5,37.3,29.65,WNW,293,9.0,10.0,22,0.00,,,0.00,Wunderground v.1.15,2013-09-27 00:40:00,
2013-09-26 17:45:00,78.5,35.3,29.65,WNW,301,9.0,15.0,21,0.00,,,0.00,Wunderground v.1.15,2013-09-27 00:45:00,
2013-09-26 17:50:00,77.6,36.8,29.66,North,351,6.0,9.0,23,0.00,,,0.00,Wunderground v.1.15,2013-09-27 00:50:00,
2013-09-26 17:55:00,77.2,38.6,29.66,NNW,331,5.0,10.0,25,0.00,,,0.00,Wunderground v.1.15,2013-09-27 00:55:00,
2013-09-26 18:00:00,77.3,36.6,29.66,NNW,334,5.0,7.0,23,0.00,,,0.00,Wunderground v.1.15,2013-09-27 01:00:00,
2013-09-26 18:05:00,77.2,33.0,29.66,WNW,302,4.0,8.0,20,0.00,,,0.00,Wunderground v.1.15,2013-09-27 01:05:00,
2013-09-26 18:10:00,77.0,36.3,29.66,NNW,338,4.0,6.0,23,0.00,,,0.00,Wunderground v.1.15,2013-09-27 01:10:00,
2013-09-26 18:15:00,75.9,37.5,29.66,North,8,3.0,7.0,25,0.00,,,0.00,Wunderground v.1.15,2013-09-27 01:15:00,
2013-09-26 18:20:00,75.7,36.3,29.67,NW,321,7.0,10.0,24,0.00,,,0.00,Wunderground v.1.15,2013-09-27 01:20:00,
2013-09-26 18:25:00,75.2,37.9,29.67,North,6,5.0,10.0,26,0.00,,,0.00,Wunderground v.1.15,2013-09-27 01:25:00,
2013-09-26 18:30:00,74.4,36.3,29.67,NNE,19,2.0,5.0,25,0.00,,,0.00,Wunderground v.1.15,2013-09-27 01:30:00,
2013-09-26 18:35:00,74.0,35.9,29.67,NNW,332,5.0,6.0,25,0.00,,,0.00,Wunderground v.1.15,2013-09-27 01:35:00,
2013-09-26 18:40:00,73.3,36.3,29.67,North,355,3.0,4.0,26,0.00,,,0.00,Wunderground v.1.15,2013-09-27 01:40:00,
2013-09-26 18:45:00,73.3,33.2,29.67,NNW,340,1.0,8.0,23,0.00,,,0.00,Wunderground v.1.15,2013-09-27 01:45:00,
2013-09-26 18:50:00,73.7,33.6,29.68,North,4,3.0,4.0,23,0.00,,,0.00,Wunderground v.1.15,2013-09-27 01:50:00,
2013-09-26 18:55:00,73.6,32.4,29.68,North,5,4.0,6.0,22,0.00,,,0.00,Wunderground v.1.15,2013-09-27 01:55:00,
2013-09-26 19:00:00,73.5,32.3,29.68,North,359,3.0,5.0,22,0.00,,,0.00,Wunderground v.1.15,2013-09-27 02:00:00,
2013-09-26 19:05:00,72.8,33.9,29.68,NNE,18,0.0,5.0,24,0.00,,,0.00,Wunderground v.1.15,2013-09-27 02:05:00,
2013-09-26 19:10:00,72.3,32.4,29.68,NW,321,3.0,3.0,23,0.00,,,0.00,Wunderground v.1.15,2013-09-27 02:10:00,
2013-09-26 19:15:00,72.0,32.1,29.68,NNW,346,0.0,5.0,23,0.00,,,0.00,Wunderground v.1.15,2013-09-27 02:15:00,
2013-09-26 19:20:00,72.2,30.1,29.68,North,353,2.0,2.0,21,0.00,,,0.00,Wunderground v.1.15,2013-09-27 02:20:00,
2013-09-26 19:25:00,72.8,32.8,29.68,North,6,0.0,5.0,23,0.00,,,0.00,Wunderground v.1.15,2013-09-27 02:25:00,
2013-09-26 19:30:00,72.4,31.4,29.68,NE,43,1.0,1.0,22,0.00,,,0.00,Wunderground v.1.15,2013-09-27 02:30:00,
2013-09-26 19:35:00,72.2,30.1,29.69,North,352,0.0,1.0,21,0.00,,,0.00,Wunderground v.1.15,2013-09-27 02:35:00,
2013-09-26 19:40:00,71.9,28.6,29.69,East,79,0.0,0.0,20,0.00,,,0.00,Wunderground v.1.15,2013-09-27 02:40:00,
2013-09-26 19:45:00,71.7,29.7,29.69,NNW,330,5.0,5.0,21,0.00,,,0.00,Wunderground v.1.15,2013-09-27 02:45:00,
2013-09-26 19:50:00,72.0,29.9,29.69,North,356,2.0,4.0,21,0.00,,,0.00,Wunderground v.1.15,2013-09-27 02:50:00,
2013-09-26 19:55:00,72.3,33.5,29.69,NNW,327,3.0,5.0,24,0.00,,,0.00,Wunderground v.1.15,2013-09-27 02:55:00,
2013-09-26 20:00:00,72.4,31.4,29.70,NNW,332,2.0,4.0,22,0.00,,,0.00,Wunderground v.1.15,2013-09-27 03:00:00,
2013-09-26 20:05:00,71.4,34.7,29.70,North,1,0.0,4.0,26,0.00,,,0.00,Wunderground v.1.15,2013-09-27 03:05:00,
2013-09-26 20:10:00,71.0,32.4,29.70,ESE,110,0.0,1.0,24,0.00,,,0.00,Wunderground v.1.15,2013-09-27 03:10:00,
2013-09-26 20:15:00,70.5,31.9,29.71,SW,232,0.0,2.0,24,0.00,,,0.00,Wunderground v.1.15,2013-09-27 03:15:00,
2013-09-26 20:20:00,70.2,30.6,29.71,SW,215,0.0,0.0,23,0.00,,,0.00,Wunderground v.1.15,2013-09-27 03:20:00,
2013-09-26 20:25:00,70.4,32.9,29.71,SSW,201,0.0,0.0,25,0.00,,,0.00,Wunderground v.1.15,2013-09-27 03:25:00,
2013-09-26 20:30:00,69.9,32.5,29.71,SSW,201,0.0,0.0,25,0.00,,,0.00,Wunderground v.1.15,2013-09-27 03:30:00,
2013-09-26 20:35:00,69.7,32.3,29.71,ESE,117,0.0,1.0,25,0.00,,,0.00,Wunderground v.1.15,2013-09-27 03:35:00,
2013-09-26 20:40:00,69.8,30.3,29.71,ESE,111,1.0,1.0,23,0.00,,,0.00,Wunderground v.1.15,2013-09-27 03:40:00,
2013-09-26 20:45:00,70.6,29.9,29.71,ESE,111,0.0,2.0,22,0.00,,,0.00,Wunderground v.1.15,2013-09-27 03:45:00,
2013-09-26 20:50:00,70.7,31.1,29.72,ESE,111,0.0,1.0,23,0.00,,,0.00,Wunderground v.1.15,2013-09-27 03:50:00,
2013-09-26 20:55:00,70.2,30.6,29.72,ESE,113,0.0,1.0,23,0.00,,,0.00,Wunderground v.1.15,2013-09-27 03:55:00,
2013-09-26 21:00:00,69.9,29.3,29.72,SE,130,0.0,0.0,22,0.00,,,0.00,Wunderground v.1.15,2013-09-27 04:00:00,
2013-09-26 21:01:00,69.9,29.3,29.72,SE,130,0.0,0.0,22,0.00,,,0.00,Wunderground v.1.15,2013-09-27 04:01:00,
2013-09-26 21:06:00,70.1,28.3,29.72,SE,130,0.0,1.0,21,0.00,,,0.00,Wunderground v.1.15,2013-09-27 04:06:00,
2013-09-26 21:11:00,69.9,29.3,29.72,ESE,115,0.0,2.0,22,0.00,,,0.00,Wunderground v.1.15,2013-09-27 04:11:00,
2013-09-26 21:16:00,69.9,29.3,29.72,ESE,112,1.0,2.0,22,0.00,,,0.00,Wunderground v.1.15,2013-09-27 04:16:00,
2013-09-26 21:21:00,69.9,29.3,29.72,ESE,118,0.0,1.0,22,0.00,,,0.00,Wunderground v.1.15,2013-09-27 04:21:00,
2013-09-26 21:26:00,69.7,30.2,29.72,ESE,121,0.0,1.0,23,0.00,,,0.00,Wunderground v.1.15,2013-09-27 04:26:00,
2013-09-26 21:31:00,69.3,29.9,29.72,ESE,123,1.0,1.0,23,0.00,,,0.00,Wunderground v.1.15,2013-09-27 04:31:00,
2013-09-26 21:36:00,69.3,29.9,29.73,SE,131,0.0,2.0,23,0.00,,,0.00,Wunderground v.1.15,2013-09-27 04:36:00,
2013-09-26 21:41:00,68.9,29.5,29.73,SE,131,0.0,1.0,23,0.00,,,0.00,Wunderground v.1.15,2013-09-27 04:41:00,
2013-09-26 21:46:00,68.6,30.3,29.73,ESE,122,0.0,1.0,24,0.00,,,0.00,Wunderground v.1.15,2013-09-27 04:46:00,
2013-09-26 21:51:00,68.4,30.2,29.73,ESE,122,0.0,0.0,24,0.00,,,0.00,Wunderground v.1.15,2013-09-27 04:51:00,
2013-09-26 21:56:00,68.2,30.0,29.74,ESE,108,1.0,2.0,24,0.00,,,0.00,Wunderground v.1.15,2013-09-27 04:56:00,
2013-09-26 22:01:00,68.3,30.1,29.74,ESE,110,0.0,0.0,24,0.00,,,0.00,Wunderground v.1.15,2013-09-27 05:01:00,
2013-09-26 22:06:00,68.2,30.0,29.74,ESE,115,1.0,1.0,24,0.00,,,0.00,Wunderground v.1.15,2013-09-27 05:06:00,
2013-09-26 22:11:00,67.9,30.8,29.74,ESE,114,0.0,0.0,25,0.00,,,0.00,Wunderground v.1.15,2013-09-27 05:11:00,
2013-09-26 22:16:00,67.3,31.2,29.74,ESE,115,0.0,0.0,26,0.00,,,0.00,Wunderground v.1.15,2013-09-27 05:16:00,
2013-09-26 22:21:00,66.2,30.3,29.74,SW,231,0.0,1.0,26,0.00,,,0.00,Wunderground v.1.15,2013-09-27 05:21:00,
2013-09-26 22:26:00,65.8,30.9,29.74,SSW,207,0.0,1.0,27,0.00,,,0.00,Wunderground v.1.15,2013-09-27 05:26:00,
2013-09-26 22:31:00,65.8,32.6,29.74,SSW,207,0.0,1.0,29,0.00,,,0.00,Wunderground v.1.15,2013-09-27 05:31:00,
2013-09-26 22:36:00,65.9,32.7,29.75,SSW,207,0.0,1.0,29,0.00,,,0.00,Wunderground v.1.15,2013-09-27 05:36:00,
2013-09-26 22:41:00,65.8,32.6,29.75,SE,139,0.0,1.0,29,0.00,,,0.00,Wunderground v.1.15,2013-09-27 05:41:00,
2013-09-26 22:46:00,65.7,33.4,29.75,ESE,117,0.0,1.0,30,0.00,,,0.00,Wunderground v.1.15,2013-09-27 05:46:00,
2013-09-26 22:51:00,65.7,32.5,29.75,ESE,117,1.0,1.0,29,0.00,,,0.00,Wunderground v.1.15,2013-09-27 05:51:00,
2013-09-26 22:56:00,65.6,31.6,29.75,ESE,115,0.0,1.0,28,0.00,,,0.00,Wunderground v.1.15,2013-09-27 05:56:00,
2013-09-26 23:01:00,66.4,32.3,29.75,ESE,112,1.0,2.0,28,0.00,,,0.00,Wunderground v.1.15,2013-09-27 06:01:00,
2013-09-26 23:06:00,66.3,31.3,29.75,ESE,115,1.0,2.0,27,0.00,,,0.00,Wunderground v.1.15,2013-09-27 06:06:00,
2013-09-26 23:11:00,66.1,30.2,29.76,ESE,113,0.0,1.0,26,0.00,,,0.00,Wunderground v.1.15,2013-09-27 06:11:00,
2013-09-26 23:16:00,65.9,30.9,29.76,ESE,117,0.0,1.0,27,0.00,,,0.00,Wunderground v.1.15,2013-09-27 06:16:00,
2013-09-26 23:21:00,65.8,29.9,29.76,ESE,113,0.0,1.0,26,0.00,,,0.00,Wunderground v.1.15,2013-09-27 06:21:00,
2013-09-26 23:26:00,65.7,30.8,29.76,ESE,115,0.0,1.0,27,0.00,,,0.00,Wunderground v.1.15,2013-09-27 06:26:00,
2013-09-26 23:31:00,65.5,30.6,29.76,ENE,67,2.0,3.0,27,0.00,,,0.00,Wunderground v.1.15,2013-09-27 06:31:00,
2013-09-26 23:36:00,65.3,29.5,29.76,East,98,0.0,3.0,26,0.00,,,0.00,Wunderground v.1.15,2013-09-27 06:36:00,
2013-09-26 23:41:00,65.7,29.8,29.76,ESE,109,0.0,1.0,26,0.00,,,0.00,Wunderground v.1.15,2013-09-27 06:41:00,
2013-09-26 23:46:00,66.0,30.1,29.76,ESE,115,0.0,1.0,26,0.00,,,0.00,Wunderground v.1.15,2013-09-27 06:46:00,
2013-09-26 23:50:00,66.0,30.1,29.76,ESE,113,0.0,0.0,26,0.00,,,0.00,Wunderground v.1.15,2013-09-27 06:50:00,
2013-09-26 23:55:00,65.9,30.0,29.76,ESE,113,0.0,1.0,26,0.00,,,0.00,Wunderground v.1.15,2013-09-27 06:55:00,